| time (UTC) | temp F | wind direction | speed MPH | gust MPH | rain 1hr in | rain 24hr in | rain mn in | humidity % | barometer mb |
| 20260904154955 | 91 | 167 | 6.0 | 13.0 | 0.00 | 0.00 | 0.00 | 62 | 1013.9 |
| 20260904154449 | 90 | 157 | 7.0 | 14.0 | 0.00 | 0.00 | 0.00 | 64 | 1014.1 |
| 20260904153944 | 90 | 197 | 5.0 | 9.0 | 0.00 | 0.00 | 0.00 | 65 | 1014.0 |
| 20260904153439 | 90 | 199 | 8.0 | 14.0 | 0.00 | 0.00 | 0.00 | 65 | 1014.1 |
| 20260904152936 | 89 | 176 | 8.0 | 13.0 | 0.00 | 0.00 | 0.00 | 66 | 1014.1 |
| 20260904152432 | 89 | 169 | 11.0 | 17.0 | 0.00 | 0.00 | 0.00 | 67 | 1014.1 |
| 20260904151931 | 89 | 158 | 11.0 | 13.0 | 0.00 | 0.00 | 0.00 | 67 | 1014.1 |
| 20260904151426 | 88 | 149 | 11.0 | 13.0 | 0.00 | 0.00 | 0.00 | 70 | 1013.9 |
| 20260904150921 | 88 | 175 | 8.0 | 13.0 | 0.00 | 0.00 | 0.00 | 70 | 1014.0 |
| 20260904150416 | 88 | 178 | 6.0 | 16.0 | 0.00 | 0.00 | 0.00 | 71 | 1013.9 |
| 20260904145913 | 87 | 155 | 8.0 | 15.0 | 0.00 | 0.00 | 0.00 | 71 | 1013.9 |
| 20260904145410 | 88 | 145 | 13.0 | 18.0 | 0.00 | 0.00 | 0.00 | 71 | 1013.7 |
| 20260904144905 | 88 | 170 | 12.0 | 15.0 | 0.00 | 0.00 | 0.00 | 71 | 1013.9 |
| 20260904144401 | 88 | 187 | 9.0 | 12.0 | 0.00 | 0.00 | 0.00 | 72 | 1013.8 |
| 20260904143856 | 88 | 139 | 4.0 | 13.0 | 0.00 | 0.00 | 0.00 | 74 | 1013.9 |
| 20260904143353 | 86 | 164 | 6.0 | 10.0 | 0.00 | 0.00 | 0.00 | 77 | 1013.8 |
| 20260904142849 | 86 | 147 | 9.0 | 13.0 | 0.00 | 0.00 | 0.00 | 77 | 1013.8 |
| 20260904142345 | 86 | 148 | 7.0 | 12.0 | 0.00 | 0.00 | 0.00 | 77 | 1013.7 |
| 20260904141839 | 86 | 148 | 6.0 | 11.0 | 0.00 | 0.00 | 0.00 | 77 | 1014.0 |
| 20260904141335 | 86 | 174 | 5.0 | 9.0 | 0.00 | 0.00 | 0.00 | 78 | 1013.7 |
| 20260904140831 | 85 | 195 | 5.0 | 12.0 | 0.00 | 0.00 | 0.00 | 79 | 1013.8 |
| 20260904140326 | 85 | 145 | 9.0 | 11.0 | 0.00 | 0.00 | 0.00 | 79 | 1013.7 |
| 20260904135824 | 84 | 140 | 6.0 | 11.0 | 0.00 | 0.00 | 0.00 | 79 | 1014.0 |
| 20260904135320 | 84 | 168 | 5.0 | 9.0 | 0.00 | 0.00 | 0.00 | 80 | 1013.8 |
| 20260904134816 | 84 | 148 | 5.0 | 8.0 | 0.00 | 0.00 | 0.00 | 80 | 1013.9 |
| 20260904134315 | 84 | 136 | 6.0 | 10.0 | 0.00 | 0.00 | 0.00 | 80 | 1013.9 |
| 20260904133810 | 84 | 175 | 4.0 | 8.0 | 0.00 | 0.00 | 0.00 | 81 | 1013.9 |
| 20260904133306 | 84 | 144 | 7.0 | 11.0 | 0.00 | 0.00 | 0.00 | 81 | 1013.7 |
| 20260904132805 | 83 | 172 | 5.0 | 10.0 | 0.00 | 0.00 | 0.00 | 81 | 1013.6 |
| 20260904132301 | 83 | 133 | 12.0 | 13.0 | 0.00 | 0.00 | 0.00 | 82 | 1013.6 |
| 20260904131800 | 83 | 154 | 6.0 | 11.0 | 0.00 | 0.00 | 0.00 | 82 | 1013.5 |
| 20260904131256 | 83 | 156 | 5.0 | 5.0 | 0.00 | 0.00 | 0.00 | 83 | 1013.6 |
| 20260904130755 | 83 | 153 | 6.0 | 10.0 | 0.00 | 0.00 | 0.00 | 83 | 1013.4 |
| 20260904130255 | 82 | 130 | 5.0 | 6.0 | 0.00 | 0.00 | 0.00 | 83 | 1013.5 |
| 20260904125751 | 82 | 144 | 6.0 | 6.0 | 0.00 | 0.00 | 0.00 | 84 | 1013.5 |
| 20260904125246 | 82 | 152 | 5.0 | 7.0 | 0.00 | 0.00 | 0.00 | 84 | 1013.3 |
| 20260904124741 | 82 | 154 | 5.0 | 6.0 | 0.00 | 0.00 | 0.00 | 84 | 1013.3 |
| 20260904124238 | 82 | 157 | 4.0 | 7.0 | 0.00 | 0.00 | 0.00 | 84 | 1013.4 |
| 20260904123737 | 82 | 154 | 4.0 | 7.0 | 0.00 | 0.00 | 0.00 | 85 | 1013.5 |
| 20260904123232 | 82 | 177 | 4.0 | 11.0 | 0.00 | 0.00 | 0.00 | 85 | 1013.2 |
| 20260904122728 | 82 | 151 | 6.0 | 8.0 | 0.00 | 0.00 | 0.00 | 85 | 1013.2 |
| 20260904122222 | 82 | 152 | 5.0 | 9.0 | 0.00 | 0.00 | 0.00 | 84 | 1013.1 |
| 20260904121718 | 82 | 173 | 3.0 | 9.0 | 0.00 | 0.00 | 0.00 | 84 | 1013.0 |
| 20260904121214 | 82 | 147 | 5.0 | 5.0 | 0.00 | 0.00 | 0.00 | 84 | 1013.0 |
| 20260904120710 | 82 | 136 | 8.0 | 9.0 | 0.00 | 0.00 | 0.00 | 84 | 1012.9 |
| 20260904120206 | 82 | 169 | 3.0 | 5.0 | 0.00 | 0.00 | 0.00 | 84 | 1012.8 |
| 20260904115701 | 82 | 146 | 5.0 | 5.0 | 0.00 | 0.00 | 0.00 | 84 | 1012.7 |
| 20260904115200 | 82 | 142 | 2.0 | 5.0 | 0.00 | 0.00 | 0.00 | 84 | 1012.6 |
| 20260904114655 | 82 | 148 | 4.0 | 5.0 | 0.00 | 0.00 | 0.00 | 84 | 1012.6 |
| 20260904114149 | 82 | 154 | 4.0 | 9.0 | 0.00 | 0.00 | 0.00 | 84 | 1012.6 |
| 20260904113643 | 82 | 146 | 8.0 | 8.0 | 0.00 | 0.00 | 0.00 | 84 | 1012.5 |
| 20260904113142 | 82 | 164 | 4.0 | 6.0 | 0.00 | 0.00 | 0.00 | 84 | 1012.6 |
| 20260904112638 | 82 | 143 | 4.0 | 6.0 | 0.00 | 0.00 | 0.00 | 83 | 1012.5 |
| 20260904112134 | 82 | 155 | 4.0 | 5.0 | 0.00 | 0.00 | 0.00 | 83 | 1012.6 |
| 20260904111629 | 83 | 162 | 5.0 | 8.0 | 0.00 | 0.00 | 0.00 | 83 | 1012.6 |
| 20260904111125 | 83 | 172 | 2.0 | 4.0 | 0.00 | 0.00 | 0.00 | 83 | 1012.6 |
| 20260904110621 | 83 | 150 | 6.0 | 9.0 | 0.00 | 0.00 | 0.00 | 83 | 1012.7 |
| 20260904110114 | 83 | 148 | 6.0 | 6.0 | 0.00 | 0.00 | 0.00 | 83 | 1012.7 |
| 20260904105614 | 83 | 146 | 4.0 | 8.0 | 0.00 | 0.00 | 0.00 | 82 | 1012.6 |
| 20260904105109 | 83 | 164 | 3.0 | 5.0 | 0.00 | 0.00 | 0.00 | 82 | 1012.6 |
| 20260904104604 | 83 | 155 | 5.0 | 6.0 | 0.00 | 0.00 | 0.00 | 82 | 1012.6 |
| 20260904104100 | 83 | 164 | 4.0 | 5.0 | 0.00 | 0.00 | 0.00 | 82 | 1012.6 |
| 20260904103555 | 83 | 171 | 4.0 | 6.0 | 0.00 | 0.00 | 0.00 | 82 | 1012.6 |
| 20260904103052 | 83 | 182 | 4.0 | 9.0 | 0.00 | 0.00 | 0.00 | 82 | 1012.6 |
| 20260904102547 | 83 | 171 | 5.0 | 7.0 | 0.00 | 0.00 | 0.00 | 81 | 1012.4 |
| 20260904102042 | 83 | 170 | 4.0 | 9.0 | 0.00 | 0.00 | 0.00 | 81 | 1012.4 |
| 20260904101539 | 83 | 184 | 6.0 | 7.0 | 0.00 | 0.00 | 0.00 | 81 | 1012.4 |
| 20260904101034 | 83 | 173 | 6.0 | 7.0 | 0.00 | 0.00 | 0.00 | 81 | 1012.4 |
| 20260904100530 | 83 | 175 | 3.0 | 9.0 | 0.00 | 0.00 | 0.00 | 81 | 1012.3 |
| 20260904100025 | 83 | 153 | 5.0 | 8.0 | 0.00 | 0.00 | 0.00 | 81 | 1012.2 |
| 20260904095520 | 84 | 165 | 4.0 | 7.0 | 0.00 | 0.00 | 0.00 | 81 | 1012.3 |
| 20260904095015 | 84 | 176 | 8.0 | 9.0 | 0.00 | 0.00 | 0.00 | 81 | 1012.4 |
| 20260904094509 | 84 | 168 | 4.0 | 8.0 | 0.00 | 0.00 | 0.00 | 81 | 1012.6 |
| 20260904094005 | 84 | 166 | 6.0 | 9.0 | 0.00 | 0.00 | 0.00 | 81 | 1012.7 |
| 20260904093502 | 84 | 158 | 5.0 | 5.0 | 0.00 | 0.00 | 0.00 | 80 | 1012.5 |
| 20260904092956 | 84 | 191 | 7.0 | 8.0 | 0.00 | 0.00 | 0.00 | 80 | 1012.5 |
| 20260904092453 | 84 | 178 | 4.0 | 5.0 | 0.00 | 0.00 | 0.00 | 80 | 1012.6 |
| 20260904091948 | 84 | 172 | 6.0 | 8.0 | 0.00 | 0.00 | 0.00 | 80 | 1012.6 |
| 20260904091445 | 84 | 182 | 3.0 | 6.0 | 0.00 | 0.00 | 0.00 | 80 | 1012.5 |
| 20260904090944 | 84 | 176 | 2.0 | 6.0 | 0.00 | 0.00 | 0.00 | 80 | 1012.5 |
| 20260904090440 | 84 | 171 | 4.0 | 8.0 | 0.00 | 0.00 | 0.00 | 80 | 1012.5 |
| 20260904085934 | 84 | 175 | 3.0 | 7.0 | 0.00 | 0.00 | 0.00 | 79 | 1012.5 |
| 20260904085430 | 84 | 174 | 4.0 | 6.0 | 0.00 | 0.00 | 0.00 | 79 | 1012.7 |
| 20260904084925 | 84 | 178 | 2.0 | 6.0 | 0.00 | 0.00 | 0.00 | 79 | 1012.5 |
| 20260904084421 | 84 | 191 | 6.0 | 8.0 | 0.00 | 0.00 | 0.00 | 79 | 1012.8 |
| 20260904083916 | 84 | 178 | 6.0 | 6.0 | 0.00 | 0.00 | 0.00 | 78 | 1012.6 |
| 20260904083413 | 84 | 179 | 4.0 | 7.0 | 0.00 | 0.00 | 0.00 | 78 | 1012.8 |
| 20260904082909 | 84 | 159 | 4.0 | 9.0 | 0.00 | 0.00 | 0.00 | 78 | 1012.8 |
| 20260904082408 | 84 | 180 | 3.0 | 9.0 | 0.00 | 0.00 | 0.00 | 78 | 1013.0 |
| 20260904081903 | 84 | 168 | 4.0 | 6.0 | 0.00 | 0.00 | 0.00 | 79 | 1012.8 |
| 20260904081359 | 84 | 186 | 3.0 | 6.0 | 0.00 | 0.00 | 0.00 | 79 | 1012.8 |
| 20260904080854 | 84 | 157 | 2.0 | 5.0 | 0.00 | 0.00 | 0.00 | 79 | 1013.0 |
| 20260904080350 | 84 | 172 | 2.0 | 8.0 | 0.00 | 0.00 | 0.00 | 79 | 1013.0 |
| 20260904075841 | 84 | 171 | 4.0 | 7.0 | 0.00 | 0.00 | 0.00 | 79 | 1013.0 |
| 20260904075336 | 85 | 162 | 2.0 | 9.0 | 0.00 | 0.00 | 0.00 | 79 | 1013.0 |
| 20260904074834 | 85 | 150 | 5.0 | 8.0 | 0.00 | 0.00 | 0.00 | 79 | 1013.1 |
| 20260904074329 | 85 | 187 | 4.0 | 4.0 | 0.00 | 0.00 | 0.00 | 79 | 1013.1 |
| 20260904073825 | 85 | 200 | 4.0 | 6.0 | 0.00 | 0.00 | 0.00 | 79 | 1013.2 |
| 20260904073321 | 85 | 175 | 5.0 | 6.0 | 0.00 | 0.00 | 0.00 | 79 | 1013.2 |
| 20260904072817 | 85 | 157 | 6.0 | 12.0 | 0.00 | 0.00 | 0.00 | 79 | 1013.1 |
| 20260904072316 | 85 | 206 | 7.0 | 11.0 | 0.00 | 0.00 | 0.00 | 79 | 1013.3 |
| 20260904071812 | 85 | 175 | 3.0 | 7.0 | 0.00 | 0.00 | 0.00 | 79 | 1013.3 |
| 20260904071306 | 85 | 175 | 8.0 | 10.0 | 0.00 | 0.00 | 0.00 | 79 | 1013.4 |
| 20260904070801 | 85 | 138 | 11.0 | 14.0 | 0.00 | 0.00 | 0.00 | 79 | 1013.2 |
| 20260904070300 | 85 | 195 | 4.0 | 8.0 | 0.00 | 0.00 | 0.00 | 80 | 1013.5 |
| 20260904065755 | 85 | 178 | 4.0 | 9.0 | 0.00 | 0.00 | 0.00 | 80 | 1013.3 |
| 20260904065251 | 85 | 145 | 7.0 | 12.0 | 0.00 | 0.00 | 0.00 | 79 | 1013.4 |
| 20260904064751 | 85 | 166 | 7.0 | 8.0 | 0.00 | 0.00 | 0.00 | 79 | 1013.4 |
| 20260904064247 | 85 | 167 | 4.0 | 6.0 | 0.00 | 0.00 | 0.00 | 79 | 1013.6 |
| 20260904063743 | 85 | 187 | 4.0 | 9.0 | 0.00 | 0.00 | 0.00 | 79 | 1013.5 |
| 20260904063239 | 85 | 147 | 7.0 | 9.0 | 0.00 | 0.00 | 0.00 | 79 | 1013.6 |
| 20260904062734 | 85 | 144 | 7.0 | 15.0 | 0.00 | 0.00 | 0.00 | 79 | 1013.7 |
| 20260904062230 | 85 | 144 | 8.0 | 11.0 | 0.00 | 0.00 | 0.00 | 79 | 1013.5 |
| 20260904061725 | 85 | 137 | 10.0 | 13.0 | 0.00 | 0.00 | 0.00 | 79 | 1013.3 |
| 20260904061221 | 85 | 168 | 7.0 | 10.0 | 0.00 | 0.00 | 0.00 | 79 | 1013.2 |
| 20260904060718 | 85 | 153 | 8.0 | 13.0 | 0.00 | 0.00 | 0.00 | 79 | 1013.0 |
| 20260904060213 | 85 | 144 | 7.0 | 12.0 | 0.00 | 0.00 | 0.00 | 79 | 1013.3 |
| 20260904055709 | 85 | 173 | 3.0 | 10.0 | 0.00 | 0.00 | 0.00 | 78 | 1013.2 |
| 20260904055203 | 85 | 171 | 9.0 | 10.0 | 0.00 | 0.00 | 0.00 | 78 | 1013.3 |
| 20260904054659 | 85 | 176 | 7.0 | 11.0 | 0.00 | 0.00 | 0.00 | 78 | 1013.2 |
| 20260904054150 | 85 | 163 | 6.0 | 15.0 | 0.00 | 0.00 | 0.00 | 78 | 1013.4 |
| 20260904053649 | 85 | 157 | 6.0 | 9.0 | 0.00 | 0.00 | 0.00 | 78 | 1013.2 |
| 20260904053144 | 85 | 174 | 4.0 | 9.0 | 0.00 | 0.00 | 0.00 | 78 | 1013.4 |
| 20260904052641 | 85 | 157 | 8.0 | 16.0 | 0.00 | 0.00 | 0.00 | 78 | 1013.6 |
| 20260904052136 | 85 | 151 | 8.0 | 12.0 | 0.00 | 0.00 | 0.00 | 77 | 1013.5 |
| 20260904051633 | 85 | 152 | 7.0 | 13.0 | 0.00 | 0.00 | 0.00 | 78 | 1013.4 |
| 20260904051132 | 85 | 155 | 4.0 | 10.0 | 0.00 | 0.00 | 0.00 | 78 | 1013.7 |
| 20260904050628 | 85 | 171 | 3.0 | 11.0 | 0.00 | 0.00 | 0.00 | 78 | 1013.5 |
| 20260904050124 | 85 | 153 | 9.0 | 10.0 | 0.00 | 0.00 | 0.00 | 78 | 1013.7 |
| 20260904045619 | 85 | 170 | 5.0 | 14.0 | 0.00 | 0.00 | 0.00 | 78 | 1013.4 |
| 20260904045114 | 85 | 144 | 9.0 | 13.0 | 0.00 | 0.00 | 0.00 | 78 | 1013.5 |
| 20260904044609 | 85 | 161 | 5.0 | 7.0 | 0.00 | 0.00 | 0.00 | 78 | 1013.5 |
| 20260904044106 | 86 | 164 | 6.0 | 9.0 | 0.00 | 0.00 | 0.00 | 78 | 1013.7 |
| 20260904043602 | 86 | 155 | 6.0 | 13.0 | 0.00 | 0.00 | 0.00 | 78 | 1013.6 |
| 20260904043058 | 86 | 173 | 6.0 | 10.0 | 0.00 | 0.00 | 0.00 | 77 | 1013.5 |
| 20260904042554 | 86 | 147 | 10.0 | 16.0 | 0.00 | 0.00 | 0.00 | 77 | 1013.6 |
| 20260904042053 | 86 | 144 | 6.0 | 16.0 | 0.00 | 0.00 | 0.00 | 77 | 1013.6 |
| 20260904041549 | 86 | 161 | 7.0 | 19.0 | 0.00 | 0.00 | 0.00 | 77 | 1013.3 |
| 20260904041045 | 86 | 165 | 6.0 | 17.0 | 0.00 | 0.00 | 0.00 | 76 | 1013.4 |
| 20260904040545 | 86 | 146 | 11.0 | 16.0 | 0.00 | 0.00 | 0.00 | 76 | 1013.4 |
| 20260904040043 | 86 | 142 | 7.0 | 15.0 | 0.00 | 0.00 | 0.00 | 76 | 1013.3 |
| 20260904035542 | 86 | 149 | 8.0 | 12.0 | 0.00 | 0.00 | 0.00 | 76 | 1013.3 |
| 20260904035036 | 86 | 174 | 6.0 | 13.0 | 0.00 | 0.00 | 0.00 | 76 | 1013.3 |
| 20260904034531 | 86 | 148 | 7.0 | 13.0 | 0.00 | 0.00 | 0.00 | 75 | 1013.3 |
| 20260904034027 | 86 | 148 | 11.0 | 14.0 | 0.00 | 0.00 | 0.00 | 75 | 1013.2 |
| 20260904033523 | 86 | 141 | 11.0 | 14.0 | 0.00 | 0.00 | 0.00 | 75 | 1013.2 |
| 20260904033020 | 86 | 158 | 8.0 | 13.0 | 0.00 | 0.00 | 0.00 | 74 | 1013.0 |
| 20260904032514 | 86 | 159 | 17.0 | 19.0 | 0.00 | 0.00 | 0.00 | 74 | 1013.1 |
| 20260904032014 | 86 | 156 | 9.0 | 16.0 | 0.00 | 0.00 | 0.00 | 73 | 1013.0 |
| 20260904031509 | 86 | 143 | 7.0 | 11.0 | 0.00 | 0.00 | 0.00 | 73 | 1012.8 |
| 20260904031005 | 86 | 140 | 4.0 | 15.0 | 0.00 | 0.00 | 0.00 | 73 | 1012.7 |
| 20260904030500 | 87 | 131 | 8.0 | 20.0 | 0.00 | 0.00 | 0.00 | 73 | 1012.6 |
| 20260904025955 | 87 | 144 | 11.0 | 15.0 | 0.00 | 0.00 | 0.00 | 72 | 1012.8 |
| 20260904025451 | 87 | 152 | 6.0 | 12.0 | 0.00 | 0.00 | 0.00 | 72 | 1012.6 |
| 20260904024951 | 87 | 148 | 6.0 | 13.0 | 0.00 | 0.00 | 0.00 | 72 | 1012.7 |
| 20260904024446 | 87 | 149 | 7.0 | 11.0 | 0.00 | 0.00 | 0.00 | 72 | 1012.6 |
| 20260904023942 | 87 | 133 | 10.0 | 17.0 | 0.00 | 0.00 | 0.00 | 71 | 1012.7 |
| 20260904023438 | 87 | 147 | 13.0 | 16.0 | 0.00 | 0.00 | 0.00 | 71 | 1012.5 |
| 20260904022938 | 87 | 151 | 8.0 | 19.0 | 0.00 | 0.00 | 0.00 | 71 | 1012.4 |
| 20260904022434 | 87 | 143 | 12.0 | 21.0 | 0.00 | 0.00 | 0.00 | 70 | 1012.4 |
| 20260904021931 | 87 | 140 | 9.0 | 18.0 | 0.00 | 0.00 | 0.00 | 70 | 1012.4 |
| 20260904021426 | 88 | 161 | 10.0 | 14.0 | 0.00 | 0.00 | 0.00 | 69 | 1012.2 |
| 20260904020920 | 88 | 139 | 8.0 | 20.0 | 0.00 | 0.00 | 0.00 | 69 | 1012.3 |
| 20260904020416 | 88 | 138 | 13.0 | 19.0 | 0.00 | 0.00 | 0.00 | 68 | 1012.4 |
| 20260904015914 | 88 | 130 | 15.0 | 20.0 | 0.00 | 0.00 | 0.00 | 68 | 1012.2 |
| 20260904015410 | 88 | 146 | 13.0 | 13.0 | 0.00 | 0.00 | 0.00 | 68 | 1012.4 |
| 20260904014908 | 88 | 152 | 12.0 | 13.0 | 0.00 | 0.00 | 0.00 | 68 | 1012.0 |
| 20260904014404 | 89 | 164 | 13.0 | 13.0 | 0.00 | 0.00 | 0.00 | 67 | 1011.9 |
| 20260904013859 | 89 | 168 | 5.0 | 17.0 | 0.00 | 0.00 | 0.00 | 67 | 1011.8 |
| 20260904013355 | 89 | 156 | 11.0 | 18.0 | 0.00 | 0.00 | 0.00 | 66 | 1011.7 |
| 20260904012851 | 89 | 142 | 13.0 | 17.0 | 0.00 | 0.00 | 0.00 | 66 | 1011.6 |
| 20260904012346 | 89 | 151 | 10.0 | 17.0 | 0.00 | 0.00 | 0.00 | 65 | 1011.7 |
| 20260904011846 | 90 | 145 | 13.0 | 14.0 | 0.00 | 0.00 | 0.00 | 64 | 1011.3 |
| 20260904011341 | 90 | 139 | 9.0 | 22.0 | 0.00 | 0.00 | 0.00 | 64 | 1011.5 |
| 20260904010836 | 90 | 138 | 15.0 | 20.0 | 0.00 | 0.00 | 0.00 | 62 | 1011.4 |
| 20260904010332 | 90 | 142 | 10.0 | 19.0 | 0.00 | 0.00 | 0.00 | 61 | 1011.3 |
| 20260904005827 | 91 | 152 | 11.0 | 20.0 | 0.00 | 0.00 | 0.00 | 61 | 1011.2 |
| 20260904005323 | 91 | 158 | 12.0 | 17.0 | 0.00 | 0.00 | 0.00 | 61 | 1011.1 |
| 20260904004817 | 91 | 149 | 8.0 | 15.0 | 0.00 | 0.00 | 0.00 | 59 | 1011.0 |
| 20260904004314 | 91 | 133 | 10.0 | 19.0 | 0.00 | 0.00 | 0.00 | 59 | 1011.2 |
| 20260904003809 | 92 | 138 | 14.0 | 15.0 | 0.00 | 0.00 | 0.00 | 57 | 1011.0 |
| 20260904003305 | 92 | 142 | 9.0 | 15.0 | 0.00 | 0.00 | 0.00 | 56 | 1011.1 |
| 20260904002800 | 93 | 144 | 10.0 | 13.0 | 0.00 | 0.00 | 0.00 | 55 | 1011.1 |
| 20260904002256 | 93 | 129 | 16.0 | 18.0 | 0.00 | 0.00 | 0.00 | 54 | 1011.0 |
| 20260904001755 | 93 | 151 | 11.0 | 17.0 | 0.00 | 0.00 | 0.00 | 53 | 1011.0 |
| 20260904001250 | 94 | 147 | 16.0 | 17.0 | 0.00 | 0.00 | 0.00 | 53 | 1011.0 |
| 20260904000745 | 94 | 142 | 14.0 | 17.0 | 0.00 | 0.00 | 0.00 | 53 | 1011.0 |
| 20260904000241 | 94 | 140 | 10.0 | 19.0 | 0.00 | 0.00 | 0.00 | 53 | 1010.8 |
| 20260903235738 | 95 | 155 | 13.0 | 19.0 | 0.00 | 0.00 | 0.00 | 52 | 1010.8 |
| 20260903235235 | 95 | 153 | 12.0 | 18.0 | 0.00 | 0.00 | 0.00 | 52 | 1010.6 |
| 20260903234735 | 95 | 133 | 13.0 | 18.0 | 0.00 | 0.00 | 0.00 | 51 | 1010.7 |
| 20260903234231 | 96 | 144 | 11.0 | 15.0 | 0.00 | 0.00 | 0.00 | 50 | 1010.7 |
| 20260903233727 | 96 | 138 | 9.0 | 15.0 | 0.00 | 0.00 | 0.00 | 49 | 1010.4 |
| 20260903233222 | 96 | 123 | 13.0 | 19.0 | 0.00 | 0.00 | 0.00 | 48 | 1010.4 |
| 20260903232721 | 97 | 134 | 13.0 | 17.0 | 0.00 | 0.00 | 0.00 | 46 | 1010.6 |
| 20260903232217 | 97 | 137 | 11.0 | 17.0 | 0.00 | 0.00 | 0.00 | 46 | 1010.4 |
| 20260903231716 | 98 | 149 | 13.0 | 16.0 | 0.00 | 0.00 | 0.00 | 45 | 1010.3 |
| 20260903231212 | 98 | 152 | 8.0 | 17.0 | 0.00 | 0.00 | 0.00 | 44 | 1010.1 |
| 20260903230708 | 98 | 148 | 7.0 | 17.0 | 0.00 | 0.00 | 0.00 | 45 | 1010.0 |
| 20260903230207 | 98 | 158 | 7.0 | 13.0 | 0.00 | 0.00 | 0.00 | 45 | 1010.0 |
| 20260903225704 | 98 | 152 | 9.0 | 15.0 | 0.00 | 0.00 | 0.00 | 45 | 1009.9 |
| 20260903225200 | 99 | 138 | 12.0 | 13.0 | 0.00 | 0.00 | 0.00 | 45 | 1009.8 |
| 20260903224656 | 99 | 131 | 13.0 | 16.0 | 0.00 | 0.00 | 0.00 | 45 | 1009.7 |
| 20260903224152 | 99 | 181 | 9.0 | 12.0 | 0.00 | 0.00 | 0.00 | 45 | 1009.6 |
| 20260903223647 | 99 | 148 | 9.0 | 12.0 | 0.00 | 0.00 | 0.00 | 44 | 1009.7 |
| 20260903223145 | 99 | 142 | 9.0 | 13.0 | 0.00 | 0.00 | 0.00 | 45 | 1009.6 |
| 20260903222640 | 99 | 140 | 10.0 | 16.0 | 0.00 | 0.00 | 0.00 | 45 | 1009.6 |
| 20260903222139 | 99 | 144 | 10.0 | 15.0 | 0.00 | 0.00 | 0.00 | 44 | 1009.6 |
| 20260903221634 | 99 | 146 | 9.0 | 17.0 | 0.00 | 0.00 | 0.00 | 44 | 1009.7 |
| 20260903221132 | 100 | 152 | 12.0 | 21.0 | 0.00 | 0.00 | 0.00 | 43 | 1009.6 |
| 20260903220626 | 100 | 143 | 6.0 | 14.0 | 0.00 | 0.00 | 0.00 | 43 | 1009.6 |
| 20260903220127 | 101 | 175 | 10.0 | 15.0 | 0.00 | 0.00 | 0.00 | 42 | 1009.5 |
| 20260903215625 | 102 | 147 | 15.0 | 20.0 | 0.00 | 0.00 | 0.00 | 40 | 1009.6 |
| 20260903215120 | 102 | 182 | 6.0 | 9.0 | 0.00 | 0.00 | 0.00 | 40 | 1009.2 |
| 20260903214619 | 102 | 164 | 5.0 | 9.0 | 0.00 | 0.00 | 0.00 | 40 | 1009.5 |
| 20260903214115 | 101 | 129 | 15.0 | 21.0 | 0.00 | 0.00 | 0.00 | 40 | 1009.5 |
| 20260903213615 | 101 | 206 | 3.0 | 12.0 | 0.00 | 0.00 | 0.00 | 39 | 1009.5 |
| 20260903213111 | 101 | 179 | 5.0 | 9.0 | 0.00 | 0.00 | 0.00 | 39 | 1009.5 |
| 20260903212606 | 102 | 160 | 4.0 | 13.0 | 0.00 | 0.00 | 0.00 | 38 | 1009.5 |
| 20260903212101 | 102 | 133 | 8.0 | 17.0 | 0.00 | 0.00 | 0.00 | 38 | 1009.6 |
| 20260903211556 | 102 | 111 | 6.0 | 12.0 | 0.00 | 0.00 | 0.00 | 38 | 1009.7 |
| 20260903211053 | 102 | 139 | 10.0 | 10.0 | 0.00 | 0.00 | 0.00 | 38 | 1009.7 |
| 20260903210548 | 102 | 126 | 9.0 | 15.0 | 0.00 | 0.00 | 0.00 | 39 | 1009.8 |
| 20260903210044 | 102 | 153 | 5.0 | 15.0 | 0.00 | 0.00 | 0.00 | 39 | 1009.9 |
| 20260903205543 | 101 | 156 | 9.0 | 13.0 | 0.00 | 0.00 | 0.00 | 41 | 1009.9 |
| 20260903205038 | 101 | 152 | 9.0 | 11.0 | 0.00 | 0.00 | 0.00 | 42 | 1009.8 |
| 20260903204534 | 101 | 150 | 6.0 | 11.0 | 0.00 | 0.00 | 0.00 | 42 | 1009.8 |
| 20260903204029 | 102 | 144 | 9.0 | 10.0 | 0.00 | 0.00 | 0.00 | 42 | 1010.0 |
| 20260903203525 | 102 | 145 | 9.0 | 14.0 | 0.00 | 0.00 | 0.00 | 42 | 1010.1 |
| 20260903203024 | 101 | 151 | 13.0 | 13.0 | 0.00 | 0.00 | 0.00 | 44 | 1010.0 |
| 20260903202520 | 101 | 148 | 7.0 | 15.0 | 0.00 | 0.00 | 0.00 | 44 | 1010.2 |
| 20260903202015 | 100 | 132 | 9.0 | 15.0 | 0.00 | 0.00 | 0.00 | 44 | 1010.1 |
| 20260903201510 | 100 | 140 | 9.0 | 13.0 | 0.00 | 0.00 | 0.00 | 45 | 1010.2 |
| 20260903201009 | 100 | 159 | 5.0 | 9.0 | 0.00 | 0.00 | 0.00 | 44 | 1010.3 |
| 20260903200504 | 101 | 133 | 7.0 | 10.0 | 0.00 | 0.00 | 0.00 | 44 | 1010.3 |
| 20260903195959 | 102 | 160 | 5.0 | 10.0 | 0.00 | 0.00 | 0.00 | 43 | 1010.3 |
| 20260903195455 | 102 | 148 | 12.0 | 17.0 | 0.00 | 0.00 | 0.00 | 44 | 1010.6 |
| 20260903194950 | 103 | 168 | 5.0 | 9.0 | 0.00 | 0.00 | 0.00 | 41 | 1010.6 |
| 20260903194445 | 102 | 206 | 6.0 | 11.0 | 0.00 | 0.00 | 0.00 | 43 | 1010.6 |
| 20260903193941 | 102 | 168 | 6.0 | 11.0 | 0.00 | 0.00 | 0.00 | 42 | 1010.8 |
| 20260903193437 | 102 | 169 | 5.0 | 9.0 | 0.00 | 0.00 | 0.00 | 43 | 1010.9 |
| 20260903192932 | 102 | 205 | 5.0 | 6.0 | 0.00 | 0.00 | 0.00 | 42 | 1010.8 |
| 20260903192429 | 102 | 172 | 4.0 | 6.0 | 0.00 | 0.00 | 0.00 | 42 | 1011.0 |
| 20260903191924 | 101 | 182 | 7.0 | 9.0 | 0.00 | 0.00 | 0.00 | 43 | 1011.1 |
| 20260903191420 | 101 | 177 | 5.0 | 11.0 | 0.00 | 0.00 | 0.00 | 43 | 1011.1 |
| 20260903190919 | 101 | 207 | 4.0 | 7.0 | 0.00 | 0.00 | 0.00 | 43 | 1011.3 |
| 20260903190413 | 101 | 185 | 6.0 | 9.0 | 0.00 | 0.00 | 0.00 | 42 | 1011.3 |
| 20260903185913 | 100 | 163 | 6.0 | 8.0 | 0.00 | 0.00 | 0.00 | 43 | 1011.5 |
| 20260903185409 | 100 | 183 | 5.0 | 12.0 | 0.00 | 0.00 | 0.00 | 44 | 1011.4 |
| 20260903184904 | 100 | 209 | 5.0 | 9.0 | 0.00 | 0.00 | 0.00 | 43 | 1011.8 |
| 20260903184401 | 100 | 150 | 6.0 | 11.0 | 0.00 | 0.00 | 0.00 | 42 | 1011.7 |
| 20260903183900 | 101 | 223 | 10.0 | 11.0 | 0.00 | 0.00 | 0.00 | 43 | 1012.0 |
| 20260903183355 | 101 | 186 | 4.0 | 7.0 | 0.00 | 0.00 | 0.00 | 44 | 1011.8 |
| 20260903182854 | 100 | 189 | 9.0 | 10.0 | 0.00 | 0.00 | 0.00 | 45 | 1012.0 |
| 20260903182353 | 99 | 146 | 5.0 | 10.0 | 0.00 | 0.00 | 0.00 | 45 | 1012.3 |
| 20260903181848 | 99 | 186 | 5.0 | 10.0 | 0.00 | 0.00 | 0.00 | 45 | 1012.4 |
| 20260903181343 | 99 | 154 | 12.0 | 13.0 | 0.00 | 0.00 | 0.00 | 45 | 1012.6 |
| 20260903180838 | 100 | 226 | 3.0 | 10.0 | 0.00 | 0.00 | 0.00 | 44 | 1012.6 |
| 20260903180337 | 98 | 183 | 6.0 | 9.0 | 0.00 | 0.00 | 0.00 | 46 | 1012.5 |
| 20260903175832 | 99 | 174 | 7.0 | 14.0 | 0.00 | 0.00 | 0.00 | 46 | 1012.6 |
| 20260903175331 | 99 | 176 | 7.0 | 10.0 | 0.00 | 0.00 | 0.00 | 46 | 1012.6 |
| 20260903174826 | 97 | 234 | 5.0 | 9.0 | 0.00 | 0.00 | 0.00 | 49 | 1012.8 |
| 20260903174321 | 97 | 159 | 8.0 | 14.0 | 0.00 | 0.00 | 0.00 | 48 | 1013.0 |
| 20260903173820 | 97 | 204 | 7.0 | 10.0 | 0.00 | 0.00 | 0.00 | 48 | 1013.1 |
| 20260903173316 | 97 | 165 | 10.0 | 12.0 | 0.00 | 0.00 | 0.00 | 48 | 1013.1 |
| 20260903172812 | 96 | 195 | 9.0 | 11.0 | 0.00 | 0.00 | 0.00 | 51 | 1013.1 |
| 20260903172306 | 96 | 213 | 4.0 | 13.0 | 0.00 | 0.00 | 0.00 | 50 | 1013.2 |
| 20260903171801 | 97 | 196 | 4.0 | 14.0 | 0.00 | 0.00 | 0.00 | 50 | 1013.2 |
| 20260903171257 | 96 | 162 | 9.0 | 13.0 | 0.00 | 0.00 | 0.00 | 51 | 1013.3 |
| 20260903170755 | 96 | 139 | 15.0 | 17.0 | 0.00 | 0.00 | 0.00 | 51 | 1013.4 |
| 20260903170246 | 96 | 189 | 4.0 | 9.0 | 0.00 | 0.00 | 0.00 | 52 | 1013.6 |
| 20260903165744 | 95 | 146 | 6.0 | 14.0 | 0.00 | 0.00 | 0.00 | 53 | 1013.6 |
| 20260903165238 | 95 | 137 | 6.0 | 14.0 | 0.00 | 0.00 | 0.00 | 54 | 1014.0 |
| 20260903164733 | 94 | 211 | 6.0 | 11.0 | 0.00 | 0.00 | 0.00 | 55 | 1013.7 |
| 20260903164230 | 94 | 124 | 6.0 | 13.0 | 0.00 | 0.00 | 0.00 | 56 | 1013.9 |
| 20260903163728 | 94 | 174 | 6.0 | 15.0 | 0.00 | 0.00 | 0.00 | 54 | 1013.9 |
| 20260903163226 | 94 | 144 | 7.0 | 9.0 | 0.00 | 0.00 | 0.00 | 55 | 1014.0 |
| 20260903162721 | 94 | 218 | 3.0 | 10.0 | 0.00 | 0.00 | 0.00 | 56 | 1014.0 |
| 20260903162217 | 94 | 161 | 9.0 | 10.0 | 0.00 | 0.00 | 0.00 | 56 | 1014.0 |
| 20260903161712 | 94 | 175 | 7.0 | 8.0 | 0.00 | 0.00 | 0.00 | 57 | 1014.0 |
| 20260903161202 | 93 | 167 | 7.0 | 11.0 | 0.00 | 0.00 | 0.00 | 57 | 1013.9 |
| 20260903160657 | 93 | 171 | 8.0 | 11.0 | 0.00 | 0.00 | 0.00 | 57 | 1013.9 |
| 20260903160151 | 92 | 211 | 6.0 | 8.0 | 0.00 | 0.00 | 0.00 | 60 | 1013.9 |
| 20260903155650 | 92 | 153 | 7.0 | 9.0 | 0.00 | 0.00 | 0.00 | 61 | 1013.9 |
| 20260903155145 | 92 | 164 | 4.0 | 13.0 | 0.00 | 0.00 | 0.00 | 61 | 1013.9 |